Wetbulb
51.26 49.46 45.78 48.63 49.54 50.11 49.07 45.78 47.08 50.43 55.14 54.88 54.15 52.30 53.24 62.62 63.20 62.54 62.73 63.09 63.54 64.38 66.51 67.29 68.97 70.31 69.98 69.49 69.23 69.54 69.77 69.92 70.20 70.08 69.99 69.63 69.76 70.13 69.65 69.88 70.05 70.01 70.62 71.38
49.80 46.51 51.37 51.94 51.51 50.02 47.84 45.50 45.72 50.13 52.74 50.45 47.61 50.12 55.68 61.36 62.50 63.27 63.09 63.01 63.76 64.31 64.51 65.17 66.63 68.43 68.96 68.26 68.94 69.40 69.72 69.59 70.23 70.52 70.50 70.43 69.99 70.35 71.18 71.23 70.82 70.57 70.50 70.87
47.24 50.81 53.91 52.30 49.83 49.25 44.25 45.43 45.59 46.86 48.95 49.40 48.68 47.39 52.03 56.53 60.16 61.95 63.82 64.02 64.13 64.11 63.65 64.82 65.54 67.03 67.46 67.44 68.13 69.25 69.71 69.79 70.18 70.95 70.10 70.33 70.31 70.38 69.84 70.06 70.91 70.98 70.68 70.63
49.01 53.37 52.80 49.43 48.43 48.55 43.35 49.10 48.89 48.05 44.26 41.87 46.87 39.44 48.15 51.69 54.86 59.22 59.46 63.19 63.38 64.07 64.85 65.55 66.93 65.94 66.37 67.40 69.22 69.87 69.95 70.02 70.71 70.77 70.19 69.78 69.42 68.73 69.63 69.67 70.17 70.80 71.42 70.90
49.41 49.76 48.24 47.18 48.41 48.72 46.71 51.41 48.75 48.29 43.29 41.17 44.35 42.34 46.11 50.83 52.33 57.20 60.42 61.84 63.12 64.12 65.70 66.34 67.17 67.73 68.38 68.72 68.74 69.50 69.81 70.84 70.89 71.16 70.80 70.31 69.88 69.65 70.10 70.53 70.33 70.12 70.48 71.02
49.75 50.98 49.54 49.20 50.31 49.83 50.02 47.27 45.82 44.50 41.16 37.57 41.70 43.39 45.63 48.58 51.79 55.12 60.35 62.04 63.58 63.44 63.94 63.69 65.67 65.47 65.61 68.36 69.44 69.92 70.20 69.92 69.85 69.19 68.27 67.69 68.03 69.24 69.97 70.26 69.27 70.30 70.52 70.47
46.44 47.95 48.99 50.32 45.38 46.94 46.05 42.07 37.57 38.10 39.00 38.93 41.27 44.03 45.90 51.89 54.40 56.22 57.95 60.33 62.81 64.07 63.80 64.63 64.82 64.38 65.23 66.18 71.04 69.67 69.56 68.23 66.80 66.68 66.49 66.22 66.14 67.87 68.82 69.69 70.71 70.04 70.78 70.90
40.82 42.64 46.70 49.21 47.92 46.26 43.38 42.47 38.18 34.34 34.37 37.66 43.66 41.79 47.88 55.41 59.19 59.56 61.09 63.81 65.23 64.21 64.26 65.29 67.44 67.27 66.72 66.08 68.23 71.23 67.66 65.26 65.12 65.47 65.71 65.30 65.40 65.60 66.54 68.72 70.79 71.00 71.12 71.34
39.84 41.84 47.42 48.45 47.81 48.27 42.82 40.45 42.97 38.38 38.80 40.48 42.84 47.14 52.25 56.66 56.98 59.57 62.80 63.79 64.25 64.83 64.83 66.22 67.72 68.36 67.76 66.93 69.01 67.73 66.50 65.13 65.29 66.34 65.26 65.17 65.50 65.75 65.83 67.82 69.33 71.50 71.84 71.39
43.52 40.70 43.34 48.30 48.03 48.26 46.77 45.81 41.48 39.79 37.53 36.53 41.25 43.76 45.04 52.09 54.57 57.78 60.54 62.52 63.93 63.76 64.05 66.58 67.50 67.71 68.19 68.41 67.19 66.56 66.15 65.32 66.07 65.74 66.06 65.44 64.59 65.81 68.04 69.44 72.27 72.51 72.33 71.66
41.99 41.42 44.44 48.37 46.65 42.79 45.47 44.09 41.58 41.43 40.91 37.92 37.21 41.98 49.44 52.33 55.41 56.89 60.66 63.39 63.96 62.71 62.96 65.29 66.92 67.57 67.46 69.11 69.39 69.08 67.70 67.88 67.84 67.47 66.48 65.92 65.75 66.42 68.38 70.07 71.92 72.51 72.75 71.32
44.88 40.13 38.49 42.90 47.89 49.81 47.89 45.18 43.59 41.05 39.50 40.05 39.87 42.95 52.73 53.54 56.62 58.21 60.43 61.19 60.72 62.61 62.53 64.70 65.40 66.55 66.61 65.92 68.04 69.49 69.38 69.20 69.60 69.41 68.18 68.12 68.54 69.21 70.26 71.30 71.68 72.62 72.93 71.41
46.12 40.46 38.67 42.73 46.45 48.31 48.69 47.41 42.70 42.03 41.06 40.25 40.58 42.83 52.71 54.78 56.31 57.85 58.33 60.21 60.82 62.71 62.98 63.61 62.93 63.05 64.21 65.07 64.51 66.81 68.36 69.59 70.05 69.89 69.84 70.31 69.93 68.82 70.93 70.87 71.25 71.55 71.91 71.85
51.82 39.67 41.00 40.56 42.26 45.44 45.46 48.17 45.90 44.00 41.07 40.06 41.74 44.16 49.66 52.88 56.74 58.33 59.52 60.71 62.16 62.88 63.56 63.36 62.88 62.53 61.38 60.07 60.02 63.77 64.64 65.74 66.73 67.53 68.71 68.06 68.10 68.59 69.18 70.67 71.15 71.58 71.44 71.17
46.78 42.55 44.01 44.00 48.71 47.63 46.19 46.73 48.13 44.87 43.42 43.18 44.80 46.76 49.41 52.05 53.87 59.20 61.83 62.59 62.58 62.24 62.39 62.22 61.27 61.92 62.07 62.53 62.69 62.54 64.61 64.34 64.18 64.49 65.31 65.63 67.39 67.99 68.17 68.86 69.60 70.25 70.00 70.23
45.83 43.74 43.91 43.20 47.52 48.43 46.64 48.38 48.81 48.76 47.96 47.54 48.18 48.48 52.81 53.04 54.04 53.72 54.77 54.56 53.71 53.68 54.29 54.77 55.54 55.45 55.72 57.82 58.74 60.53 61.06 64.57 64.64 63.67 64.81 65.48 65.21 65.30 65.04 66.00 67.26 69.02 69.26 69.42
44.40 42.80 41.32 39.60 43.40 45.12 42.16 46.51 47.88 48.26 48.80 48.96 46.56 48.82 51.57 50.08 50.95 50.64 51.66 52.99 53.41 54.18 54.71 54.75 55.25 55.90 57.07 58.38 59.00 58.89 59.58 60.42 62.14 63.24 63.76 63.91 64.33 64.07 64.11 64.61 64.81 65.24 65.15 66.70
44.58 42.29 40.29 39.50 39.05 35.81 43.68 50.19 50.86 48.15 48.96 50.47 50.33 49.89 50.40 50.17 51.16 52.64 53.44 53.70 54.21 55.38 55.66 55.97 56.29 56.91 57.89 58.08 58.48 58.74 59.61 59.59 59.61 60.10 61.64 63.60 64.20 63.63 63.73 63.06 62.90 63.58 64.31 64.37
45.57 43.00 39.58 38.95 36.22 42.28 47.79 49.75 49.15 47.71 46.40 50.89 49.85 51.02 51.49 52.25 51.95 51.77 55.00 55.50 55.30 55.48 55.83 56.09 57.13 57.00 56.57 56.67 57.28 57.39 57.62 58.05 58.40 59.10 59.56 60.68 61.57 61.45 62.24 62.20 62.43 62.75 62.83 63.38
45.77 44.80 43.48 37.60 38.43 38.27 44.82 51.26 52.77 50.95 43.35 51.06 50.64 50.41 50.52 49.97 45.71 47.20 54.68 55.89 55.62 55.95 56.07 55.79 56.86 56.53 55.74 56.19 56.81 56.36 56.72 57.42 57.59 58.99 59.64 61.00 61.80 61.93 61.70 62.35 62.78 63.34 63.39 63.34
42.94 41.76 39.84 38.85 37.99 42.47 48.84 51.76 53.26 43.50 44.72 50.69 51.17 50.59 50.21 48.07 48.57 51.40 55.23 54.30 55.21 55.38 55.67 56.19 55.57 55.08 55.82 56.32 56.47 55.88 56.23 56.48 58.20 59.12 59.60 60.24 60.95 61.18 62.00 61.35 61.67 62.65 63.22 63.55
42.98 41.77 40.62 41.47 39.93 39.62 51.30 51.08 48.16 48.81 49.01 50.80 51.22 51.83 51.09 51.77 53.43 53.46 53.54 53.55 53.93 53.95 54.79 55.71 55.15 55.27 58.24 58.75 58.00 56.60 56.28 57.72 58.89 58.24 58.82 59.81 60.10 60.51 61.18 61.05 60.63 61.34 62.15 61.70
42.90 44.50 44.23 44.23 44.07 47.62 49.14 49.25 50.18 50.06 49.85 51.59 52.07 52.39 52.64 52.70 52.54 52.69 52.19 52.52 53.26 54.10 55.07 55.41 55.27 57.08 56.84 57.43 55.92 52.79 53.79 55.29 54.36 53.50 52.98 53.76 55.86 58.18 60.65 60.36 59.85 60.02 60.84 60.25
45.98 46.67 44.29 44.73 46.07 48.38 49.93 51.02 52.43 53.31 52.50 53.45 54.00 53.62 53.58 51.77 52.11 51.52 51.74 52.10 53.92 55.09 55.41 55.77 54.54 53.33 52.69 53.35 53.33 53.15 53.06 52.74 51.82 51.03 50.92 51.47 51.51 52.05 54.25 58.24 59.95 59.13 59.27 59.15
46.68 47.65 44.91 44.70 47.14 49.27 51.86 52.30 53.66 54.31 54.51 53.79 53.56 53.19 52.38 52.04 51.79 52.10 52.71 53.95 54.44 54.63 53.93 54.25 52.94 51.53 51.80 52.58 52.29 52.74 52.69 52.69 51.54 51.26 51.18 50.92 50.96 50.95 51.09 53.11 55.70 58.66 60.35 59.41
47.46 46.38 45.15 44.52 48.23 47.42 49.32 53.21 55.31 54.34 53.66 53.48 52.70 52.47 53.10 52.41 51.95 53.67 53.41 53.99 52.86 51.13 51.99 51.48 51.41 51.41 51.21 51.86 51.84 52.63 52.94 52.91 51.62 50.80 50.96 50.95 50.94 51.08 51.51 51.55 52.74 54.79 53.06 52.51
MSLP
1005.31 1005.94 1006.43 1006.52 1006.75 1006.48 1006.21 1006.19 1005.95 1005.07 1004.86 1005.32 1006.13 1006.76 1007.00 1007.38 1007.76 1007.96 1008.21 1008.51 1008.88 1008.77 1008.74 1009.37 1009.86 1010.32 1010.81 1011.28 1011.83 1012.37 1012.77 1013.26 1014.07 1014.61 1014.63 1014.81 1014.85 1014.93 1015.04 1015.02 1015.39 1016.01 1016.05 1015.86
1005.85 1005.96 1005.75 1005.99 1006.06 1006.10 1005.93 1005.67 1005.17 1004.65 1004.68 1005.61 1006.56 1007.34 1007.62 1007.64 1007.62 1007.73 1007.91 1008.24 1008.40 1008.57 1008.74 1008.86 1009.50 1009.95 1010.23 1010.55 1011.23 1011.77 1012.36 1012.99 1013.73 1014.20 1014.45 1014.41 1014.73 1014.96 1014.77 1014.51 1014.56 1015.04 1015.54 1015.68
1005.82 1005.54 1005.43 1005.49 1005.56 1005.51 1005.27 1005.35 1005.00 1004.94 1005.34 1006.01 1007.00 1008.18 1008.15 1007.90 1007.72 1007.69 1007.68 1007.95 1008.26 1008.19 1008.63 1009.15 1009.44 1009.66 1009.85 1010.23 1010.55 1011.01 1011.92 1012.84 1013.47 1013.97 1014.24 1014.30 1014.72 1014.90 1014.71 1014.77 1014.66 1014.46 1014.80 1015.16
1005.64 1005.21 1005.21 1004.94 1004.91 1005.16 1005.23 1004.70 1004.94 1005.48 1006.33 1007.19 1007.64 1009.58 1009.20 1008.79 1008.04 1007.73 1007.75 1007.61 1007.70 1007.89 1008.58 1008.78 1009.37 1009.78 1009.54 1009.92 1010.85 1011.37 1011.57 1012.73 1013.71 1014.27 1014.38 1014.67 1014.55 1014.53 1014.11 1014.15 1014.33 1014.32 1014.35 1014.47
1005.67 1005.23 1004.80 1004.70 1004.51 1004.85 1004.89 1004.65 1005.47 1006.16 1007.34 1008.24 1009.23 1009.78 1009.62 1009.23 1008.45 1008.25 1008.17 1007.99 1008.03 1008.47 1009.02 1009.40 1009.54 1009.32 1009.91 1010.48 1010.97 1011.75 1012.08 1012.05 1012.43 1012.61 1013.19 1013.91 1013.83 1014.04 1014.24 1014.12 1014.14 1014.11 1014.10 1013.80
1005.37 1004.75 1004.41 1003.92 1003.91 1004.38 1004.76 1005.59 1006.69 1007.88 1008.98 1010.21 1010.25 1010.57 1010.54 1010.09 1009.20 1008.92 1008.72 1008.77 1008.72 1009.29 1009.55 1009.60 1009.62 1009.87 1010.42 1010.66 1011.06 1011.25 1011.82 1011.81 1011.58 1011.95 1012.38 1012.33 1012.71 1013.14 1013.67 1013.73 1013.80 1013.40 1013.48 1013.66
1005.58 1004.48 1003.71 1003.56 1004.11 1004.54 1005.31 1006.71 1008.33 1009.89 1010.77 1011.08 1010.79 1010.82 1010.36 1009.43 1009.06 1009.00 1008.85 1009.10 1009.03 1009.60 1009.68 1009.93 1009.97 1010.29 1010.67 1010.82 1011.04 1011.52 1011.58 1011.58 1011.48 1011.49 1011.23 1011.22 1011.22 1011.62 1012.39 1013.33 1013.43 1013.44 1013.08 1013.27
1005.91 1004.87 1003.96 1003.39 1003.75 1004.40 1005.71 1006.94 1008.76 1010.54 1012.00 1011.60 1011.06 1010.90 1010.04 1009.32 1009.24 1009.15 1008.90 1009.03 1009.10 1009.27 1009.53 1009.74 1009.89 1010.27 1010.74 1010.86 1010.95 1011.38 1011.49 1011.44 1011.24 1011.08 1010.89 1011.29 1011.69 1011.65 1011.36 1012.83 1012.94 1012.94 1012.78 1012.87
1006.01 1005.08 1003.90 1003.51 1003.64 1004.13 1005.99 1007.28 1008.47 1010.50 1012.29 1012.19 1011.64 1010.90 1010.18 1009.62 1009.47 1009.51 1009.43 1009.37 1008.52 1008.17 1008.64 1009.07 1009.59 1010.31 1010.49 1010.75 1011.03 1011.28 1011.65 1011.55 1011.10 1010.61 1010.76 1011.12 1011.44 1010.46 1010.97 1012.06 1012.38 1012.15 1012.08 1012.27
1005.96 1005.73 1004.48 1004.06 1004.01 1004.73 1005.35 1007.07 1008.73 1010.50 1012.33 1012.87 1012.10 1011.53 1010.68 1010.20 1009.64 1009.69 1009.45 1009.10 1008.96 1009.29 1008.98 1008.85 1008.53 1009.86 1010.32 1010.79 1011.28 1011.56 1011.69 1011.50 1011.01 1010.80 1010.78 1010.84 1010.57 1010.96 1011.26 1011.50 1011.70 1011.69 1011.49 1011.36
1006.03 1006.45 1005.41 1004.66 1005.34 1005.65 1006.34 1007.50 1009.34 1010.93 1012.11 1012.74 1012.66 1011.54 1009.94 1009.73 1009.59 1009.47 1009.19 1009.13 1009.17 1009.19 1009.19 1009.29 1009.40 1010.38 1010.71 1010.89 1011.19 1011.58 1011.72 1011.52 1011.15 1011.06 1011.04 1010.87 1010.98 1011.17 1011.14 1011.18 1010.96 1010.79 1010.33 1010.55
1005.90 1006.94 1007.03 1006.69 1006.13 1006.08 1006.37 1007.67 1009.05 1011.11 1012.67 1013.07 1012.62 1010.96 1009.96 1009.58 1009.51 1009.79 1009.85 1009.84 1010.03 1010.02 1010.23 1010.14 1010.59 1011.12 1011.16 1011.50 1011.79 1011.92 1011.69 1011.00 1010.82 1010.78 1010.65 1010.88 1011.23 1011.19 1010.95 1010.59 1010.45 1010.04 1009.99 1010.04
1005.67 1006.97 1007.71 1007.57 1007.15 1006.63 1007.20 1008.22 1009.26 1010.27 1011.42 1012.58 1012.65 1011.11 1010.28 1009.84 1009.72 1009.81 1009.93 1009.91 1009.99 1010.35 1010.42 1010.99 1011.66 1012.15 1012.45 1012.44 1012.18 1012.04 1011.31 1011.14 1010.89 1010.75 1010.88 1011.07 1011.29 1011.14 1010.63 1010.31 1010.15 1009.97 1010.02 1009.83
1004.97 1007.44 1007.77 1007.69 1007.50 1007.68 1008.10 1008.59 1009.35 1010.03 1011.38 1012.32 1012.03 1011.37 1011.03 1011.01 1010.78 1010.49 1010.55 1010.76 1010.97 1011.15 1011.43 1011.98 1012.42 1012.85 1013.02 1013.05 1012.91 1012.67 1011.84 1011.68 1011.55 1011.32 1011.23 1010.97 1010.78 1010.48 1010.08 1010.00 1009.98 1009.85 1009.78 1009.75
1005.55 1007.68 1008.00 1008.24 1008.05 1008.10 1008.82 1009.22 1009.70 1010.31 1010.79 1011.31 1011.47 1011.73 1011.70 1011.55 1011.46 1011.36 1011.46 1011.68 1011.98 1012.31 1012.48 1012.85 1013.11 1012.96 1012.72 1012.60 1012.79 1012.56 1011.98 1011.59 1011.49 1011.33 1011.22 1010.59 1010.43 1009.93 1009.60 1009.23 1009.41 1009.26 1009.23 1009.29
1006.45 1008.30 1008.60 1009.17 1008.90 1009.01 1009.60 1009.76 1009.94 1010.46 1011.02 1011.42 1011.76 1012.31 1012.37 1012.28 1012.14 1012.21 1012.49 1012.55 1013.07 1013.45 1013.79 1013.95 1013.77 1013.55 1013.36 1013.30 1013.02 1012.52 1012.28 1012.17 1011.84 1011.14 1011.05 1010.82 1010.66 1010.22 1010.15 1009.72 1008.93 1008.97 1009.01 1008.87
1007.23 1008.53 1009.70 1010.28 1009.94 1009.69 1010.46 1010.81 1010.83 1011.16 1011.41 1011.64 1012.19 1012.73 1012.89 1013.05 1013.09 1013.41 1013.67 1013.77 1013.96 1014.18 1014.44 1014.51 1014.50 1014.17 1013.71 1013.56 1013.13 1012.91 1012.58 1012.27 1011.99 1011.72 1011.39 1011.22 1010.97 1010.54 1010.06 1009.55 1009.35 1009.11 1008.82 1008.78
1007.70 1009.33 1010.32 1011.49 1010.99 1011.25 1011.37 1010.91 1010.92 1011.43 1011.91 1011.94 1012.27 1013.02 1013.40 1013.75 1014.18 1014.33 1014.48 1014.54 1014.74 1014.96 1014.88 1014.63 1014.54 1014.31 1014.12 1014.16 1013.99 1013.66 1013.21 1012.71 1012.27 1011.89 1011.54 1011.13 1010.80 1010.47 1009.93 1009.67 1009.50 1008.98 1008.76 1008.57
1007.52 1009.23 1011.49 1012.27 1012.86 1012.38 1011.76 1011.12 1010.91 1011.33 1012.51 1012.61 1012.89 1013.40 1013.71 1014.01 1014.32 1015.02 1015.01 1015.04 1015.40 1015.62 1015.67 1015.77 1015.59 1015.39 1015.17 1014.99 1014.53 1013.98 1013.37 1012.91 1012.43 1011.95 1011.42 1010.92 1010.63 1010.33 1009.92 1009.38 1008.92 1008.51 1008.54 1008.47
1008.58 1009.05 1010.68 1012.79 1013.04 1012.45 1010.75 1010.43 1010.53 1011.24 1012.46 1012.57 1013.03 1013.48 1013.89 1014.52 1015.44 1016.00 1016.10 1016.17 1016.25 1016.24 1016.05 1015.66 1015.37 1015.30 1015.09 1014.68 1014.36 1014.13 1013.67 1013.15 1012.58 1012.04 1011.58 1011.02 1010.47 1010.02 1009.49 1009.05 1008.50 1008.23 1007.87 1007.61
1009.81 1010.84 1011.91 1012.70 1012.49 1011.68 1010.79 1010.64 1010.88 1011.90 1012.43 1012.35 1013.07 1013.65 1014.26 1015.02 1015.57 1016.06 1016.34 1016.46 1016.37 1016.20 1016.03 1015.90 1015.70 1015.44 1015.03 1014.53 1014.12 1013.82 1013.48 1013.05 1012.53 1011.91 1011.42 1010.91 1010.28 1009.79 1009.19 1008.66 1008.16 1007.79 1007.69 1007.39
1010.36 1011.43 1012.61 1013.15 1012.80 1011.83 1010.93 1011.18 1011.41 1011.83 1012.33 1012.77 1013.48 1013.99 1014.57 1015.22 1015.87 1016.25 1016.58 1016.87 1016.90 1016.77 1016.36 1016.03 1015.80 1015.37 1014.67 1014.30 1013.99 1013.61 1013.20 1012.74 1012.16 1011.82 1011.23 1010.44 1009.79 1009.20 1008.67 1008.31 1007.81 1007.50 1007.13 1006.85
1010.97 1011.11 1011.60 1012.50 1012.18 1011.69 1011.47 1011.52 1011.53 1011.99 1012.61 1013.49 1013.96 1014.60 1015.17 1015.95 1016.59 1017.01 1017.25 1017.29 1017.09 1016.79 1016.50 1016.34 1016.06 1015.42 1015.12 1014.79 1014.47 1013.98 1013.52 1013.02 1012.41 1011.95 1011.35 1010.73 1009.85 1008.98 1008.07 1007.63 1007.14 1006.92 1006.60 1006.23
1010.89 1011.13 1012.02 1012.59 1012.44 1012.18 1012.01 1012.15 1012.35 1012.71 1013.44 1014.13 1014.67 1015.34 1015.95 1016.67 1017.09 1017.28 1017.28 1017.20 1016.95 1016.84 1016.63 1016.26 1016.03 1015.66 1015.30 1015.02 1014.61 1014.14 1013.60 1013.09 1012.52 1011.85 1011.22 1010.55 1009.85 1009.08 1008.29 1007.40 1006.55 1006.01 1005.74 1005.45
1010.87 1011.28 1012.39 1013.02 1012.86 1012.78 1012.72 1012.84 1013.22 1013.84 1014.40 1015.02 1015.64 1016.11 1016.53 1016.82 1017.20 1017.35 1017.30 1017.24 1017.21 1017.09 1016.86 1016.55 1016.26 1015.87 1015.36 1014.86 1014.43 1013.96 1013.45 1012.96 1012.31 1011.63 1010.84 1010.10 1009.46 1008.84 1008.11 1007.35 1006.62 1005.82 1004.99 1004.82
1010.46 1010.99 1011.60 1011.77 1011.48 1012.07 1012.80 1013.26 1013.74 1014.36 1015.13 1015.65 1015.98 1016.60 1016.94 1017.12 1017.32 1017.26 1017.41 1017.54 1017.54 1017.44 1017.21 1016.86 1016.54 1016.01 1015.61 1014.98 1014.41 1013.75 1013.18 1012.61 1012.01 1011.18 1010.36 1009.71 1009.06 1008.35 1007.73 1007.05 1006.00 1005.14 1004.53 1004.05
Wind_Speed
3 6 1 7 5 5 5 3 6 6 5 5 7 5 5 10 10 9 10 9 10 14 9 9 12 11 11 9 9 10 10 8 8 4 3 3 5 3 3 4 5 5 5 8
7 3 7 3 4 5 5 2 5 2 4 6 5 2 1 6 10 9 10 10 10 7 6 8 10 11 12 12 11 10 10 8 7 5 2 2 2 2 2 2 4 7 7 6
5 5 4 2 0 4 3 2 2 3 2 5 7 7 7 4 3 6 8 6 7 9 7 5 8 10 8 10 12 11 8 6 6 5 3 2 1 2 1 2 5 6 8 8
3 3 3 4 4 5 1 6 3 5 4 3 5 3 4 5 8 5 6 10 9 9 5 4 5 7 9 9 5 5 7 7 5 4 3 4 4 5 3 3 3 3 6 7
7 2 3 5 3 5 9 1 3 3 5 4 8 6 7 6 6 4 6 5 3 5 6 6 4 6 1 6 6 4 6 8 8 7 6 2 4 4 2 3 4 4 4 6
6 3 5 8 1 4 3 4 8 6 4 4 4 5 6 4 4 5 3 5 5 8 8 7 4 6 6 4 5 8 10 8 10 8 7 10 9 4 4 7 5 4 3 4
5 6 4 3 0 1 5 8 5 6 6 5 1 2 7 6 4 4 6 6 5 7 7 6 6 5 4 2 4 7 11 9 9 9 12 12 10 8 4 6 7 5 4 4
4 5 4 3 7 8 2 7 8 5 3 4 2 1 5 5 5 4 3 5 6 9 10 8 6 6 4 5 3 9 9 8 7 6 7 4 5 1 5 5 7 9 6 7
4 5 6 2 3 6 3 2 4 10 3 3 3 3 6 5 6 4 5 5 10 14 16 11 7 3 5 2 5 8 7 5 8 8 4 6 8 5 2 8 10 9 10 7
3 2 1 5 2 6 3 6 4 4 4 3 5 4 6 6 8 6 8 9 7 9 10 10 13 9 8 4 5 5 6 9 8 6 4 5 6 4 3 7 12 12 10 7
6 4 8 4 5 1 2 3 8 7 4 6 2 7 6 8 8 10 9 6 4 6 9 9 11 6 7 7 1 4 6 7 5 4 2 2 4 5 7 11 14 12 5 6
6 6 0 1 6 3 3 4 5 7 3 2 3 7 3 7 7 1 6 5 5 6 6 8 9 6 7 6 3 4 8 5 5 4 3 2 3 8 10 10 8 5 6 5
9 1 3 8 8 5 6 3 4 6 4 5 6 7 6 6 2 4 6 1 2 3 7 8 7 5 4 7 7 7 1 2 4 4 3 3 4 4 2 3 3 3 3 2
11 4 7 9 7 4 3 2 3 4 4 5 6 3 5 7 4 1 4 6 5 8 9 7 7 2 3 5 6 7 6 4 3 4 3 4 5 3 1 2 1 1 1 1
6 5 3 4 5 7 3 3 2 2 1 5 6 5 3 4 3 4 5 7 9 9 9 8 7 6 6 6 4 6 6 7 4 4 6 6 7 6 6 6 5 5 5 4
2 3 3 5 8 8 6 5 4 5 4 5 7 5 2 3 8 12 9 11 11 9 8 7 8 8 7 6 6 7 7 4 7 7 8 5 6 6 6 7 5 5 5 5
5 6 4 1 4 4 4 4 2 3 3 2 4 4 2 7 10 6 7 8 8 8 7 7 6 5 6 9 10 11 10 7 6 5 6 8 8 8 8 8 7 7 7 5
7 6 3 3 4 1 5 3 7 8 4 4 10 6 5 6 5 7 6 7 7 6 7 9 10 11 10 11 11 11 10 9 8 7 6 7 7 8 10 6 8 8 5 7
5 7 5 6 3 2 4 7 4 4 2 3 7 8 7 6 6 7 6 8 7 6 6 5 5 5 5 6 8 8 9 8 9 9 9 7 5 8 9 10 9 9 6 7
7 8 7 3 6 7 5 2 4 5 2 7 6 6 5 6 2 3 2 2 3 3 4 7 8 7 6 9 7 7 8 8 8 8 9 8 10 10 9 9 9 9 7 9
4 5 5 2 3 5 4 2 4 5 8 6 6 4 4 3 3 4 2 4 5 6 8 7 6 7 7 7 6 8 8 9 11 11 10 10 10 10 10 9 8 9 8 6
5 6 2 3 4 5 3 4 7 5 3 6 4 3 5 6 5 5 7 6 6 6 7 8 8 9 8 9 10 12 11 14 12 13 14 13 12 9 9 9 10 9 9 9
1 5 6 6 5 2 3 2 2 3 6 4 6 4 6 6 4 3 3 4 4 5 7 5 7 8 9 9 9 12 12 13 15 14 15 15 15 14 12 10 9 9 9 8
2 2 5 3 3 3 3 3 4 4 6 7 7 7 5 6 4 3 3 4 7 6 8 8 8 8 9 9 11 12 13 15 16 15 14 12 12 14 15 11 10 7 8 9
4 4 6 1 1 3 1 4 7 10 10 10 7 5 6 6 4 2 3 5 5 6 7 6 8 8 11 13 13 13 12 12 13 13 12 12 10 11 11 11 10 10 9 8
5 9 7 8 9 6 4 7 8 10 8 7 9 5 5 5 3 2 4 5 6 6 7 7 8 10 12 13 12 12 12 12 13 13 11 10 9 9 8 9 11 12 15 16
Wind_Direction
3 53 285 247 190 202 251 190 223 266 200 129 190 256 249 194 199 200 204 208 208 216 217 199 205 197 190 183 190 197 191 182 148 159 206 204 230 192 195 203 223 210 220 206
19 290 240 216 177 200 232 274 290 294 101 101 174 207 300 200 228 223 206 214 222 234 198 189 180 186 196 191 192 189 200 171 172 174 196 192 118 255 242 206 197 187 203 214
154 236 317 284 175 349 339 200 281 110 67 66 107 347 346 0 191 216 215 215 209 226 220 165 171 184 190 192 188 189 181 165 164 160 124 109 72 282 299 256 256 226 186 191
256 298 273 23 324 133 267 199 153 106 78 204 42 233 301 317 289 259 250 217 203 213 163 184 145 189 202 198 149 165 141 115 102 136 173 209 232 242 211 192 235 229 197 190
240 242 1 351 201 166 231 136 77 59 79 74 357 82 269 347 305 338 338 292 168 102 71 79 153 208 84 117 172 121 117 116 136 153 136 185 230 238 271 249 237 219 214 201
224 263 217 208 70 178 123 85 45 56 75 41 282 118 299 269 273 318 14 41 77 82 79 84 77 61 59 54 142 144 134 146 164 151 145 168 197 193 279 273 256 220 200 227
321 261 290 165 197 73 78 55 357 12 16 215 133 62 226 269 267 239 306 42 73 86 83 63 41 17 76 110 107 143 158 172 188 177 202 212 190 166 172 282 284 278 223 219
138 335 194 181 191 181 100 146 152 175 199 262 289 222 253 255 318 299 11 127 136 122 106 88 59 33 335 231 171 158 170 178 218 214 235 183 157 131 115 281 277 272 245 243
136 276 287 202 176 128 178 129 162 104 354 51 282 282 318 325 303 318 253 247 185 165 128 113 128 138 66 72 151 156 173 191 234 254 275 192 190 135 106 272 269 257 254 237
177 351 297 275 120 40 129 151 75 16 133 221 303 279 239 229 247 245 247 233 281 60 88 78 69 22 21 71 155 173 195 210 234 283 11 326 352 351 298 301 279 251 233 204
141 118 287 35 20 215 51 50 55 110 104 153 178 268 222 227 209 217 237 217 234 75 60 80 72 26 39 16 2 242 232 226 242 260 203 274 295 279 271 269 262 238 218 191
192 137 194 234 299 273 103 118 117 117 217 52 138 271 346 268 210 115 282 318 349 58 68 70 77 50 359 357 5 238 234 243 254 265 282 306 274 269 271 266 259 253 227 197
180 235 58 353 347 354 57 49 96 107 101 187 138 261 9 356 202 198 191 237 15 62 61 68 69 56 326 311 323 298 304 298 314 307 291 273 259 270 317 14 336 349 301 265
93 98 159 181 196 149 99 79 117 104 112 169 224 285 348 346 345 57 35 42 25 27 35 33 34 22 240 263 281 299 311 304 318 307 274 252 235 218 160 72 44 37 71 211
107 116 105 57 84 79 80 5 53 9 185 148 196 144 344 327 344 69 89 68 57 44 37 22 0 352 354 2 329 292 298 304 253 235 258 235 247 243 228 172 201 199 185 183
43 144 129 52 48 92 72 31 47 54 89 68 112 64 316 35 78 65 53 69 63 52 42 28 20 14 11 12 3 358 358 283 276 293 266 278 274 274 278 290 214 210 229 216
77 124 85 159 22 56 23 333 7 50 20 161 148 161 190 54 62 49 57 60 62 46 31 19 9 357 4 5 1 353 338 335 329 274 256 270 289 288 265 244 234 233 225 228
117 93 62 111 35 140 275 11 107 106 34 59 107 108 110 114 92 68 52 72 53 30 12 6 359 355 358 352 347 333 334 330 333 326 305 296 289 272 272 268 267 273 256 237
69 107 70 110 83 321 304 242 202 135 340 357 125 137 144 133 70 25 27 43 39 19 1 326 328 325 315 315 321 322 323 321 322 320 316 312 304 295 288 278 266 248 227 247
61 72 104 115 126 192 243 172 131 119 273 193 168 179 166 143 178 202 91 60 29 6 342 342 345 337 327 326 326 324 317 316 311 314 309 303 308 300 296 289 282 270 248 248
24 19 110 113 143 288 239 152 160 101 235 156 153 157 152 145 178 141 87 36 15 2 341 326 319 317 301 294 302 315 310 320 314 303 304 298 292 293 289 289 286 284 274 260
152 123 146 94 91 256 175 80 156 199 94 130 130 131 97 103 82 48 40 16 353 337 331 334 326 308 318 332 352 343 332 333 341 339 325 312 299 290 286 282 285 281 268 265
121 172 176 164 206 275 285 256 105 121 117 112 109 82 108 96 64 48 8 347 324 330 337 312 306 333 345 349 351 340 341 334 331 329 325 317 308 308 294 275 276 281 272 268
29 141 93 92 292 42 67 64 64 80 97 92 89 98 96 119 97 62 356 327 350 345 349 347 345 346 346 346 341 340 335 331 326 318 313 308 304 306 306 300 279 266 270 273
194 112 130 57 312 71 22 95 121 99 99 99 87 97 102 99 72 56 20 13 357 357 355 344 350 342 342 344 343 336 328 321 314 308 300 298 296 295 299 299 298 292 270 256
186 165 161 213 188 150 163 144 127 122 125 123 114 93 78 88 83 28 46 24 24 6 347 348 342 341 345 342 334 331 327 324 316 312 311 304 297 294 290 296 303 287 261 262